timestamp,wind_dir_avg,wind_spd_avg,wind_spd_max_dir,wind_spd_gust,battery_voltage,lat,long
2023-03-30 00:04:00+00:00,347.0,2.87,352.0,3.28,12.41,47.59359,-54.27349
2023-03-30 00:14:00+00:00,2.0,3.25,2.0,3.65,12.33,47.59359,-54.27349
2023-03-30 00:24:00+00:00,354.0,4.58,354.0,4.97,12.33,47.59359,-54.27349
2023-03-30 00:34:00+00:00,355.0,5.06,358.0,5.69,12.33,47.59359,-54.27349
2023-03-30 00:44:00+00:00,352.0,5.25,351.0,5.58,12.33,47.59359,-54.27349
2023-03-30 00:54:00+00:00,349.0,4.89,348.0,5.25,12.33,47.59359,-54.27349
2023-03-30 01:04:00+00:00,351.0,4.9,344.0,5.49,12.33,47.59359,-54.27349
2023-03-30 01:14:01+00:00,357.0,4.73,349.0,5.67,12.25,47.59359,-54.27349
2023-03-30 01:24:01+00:00,349.0,5.27,350.0,5.59,12.25,47.59359,-54.27349
2023-03-30 01:34:01+00:00,0.0,3.88,329.0,4.75,12.25,47.59359,-54.27349
2023-03-30 01:44:01+00:00,6.0,4.34,5.0,5.19,12.25,47.59359,-54.27349
2023-03-30 01:54:01+00:00,6.0,3.85,24.0,4.63,12.25,47.59359,-54.27349
2023-03-30 02:04:01+00:00,14.0,3.17,27.0,3.78,12.25,47.59359,-54.27349
2023-03-30 02:14:00+00:00,12.0,3.15,20.0,3.66,12.25,47.59359,-54.27349
2023-03-30 02:24:00+00:00,322.0,4.39,323.0,4.63,12.25,47.59359,-54.27349
2023-03-30 02:34:00+00:00,321.0,4.5,322.0,5.04,12.25,47.59359,-54.27349
2023-03-30 02:44:00+00:00,322.0,5.34,322.0,5.68,12.25,47.59359,-54.27349
2023-03-30 02:54:00+00:00,322.0,4.61,324.0,4.91,12.25,47.59359,-54.27349
2023-03-30 03:04:00+00:00,326.0,4.85,328.0,5.12,12.25,47.59359,-54.27349
2023-03-30 03:14:00+00:00,335.0,4.53,334.0,4.82,12.17,47.59359,-54.27349
2023-03-30 03:24:00+00:00,343.0,4.4,343.0,4.84,12.17,47.59359,-54.27349
2023-03-30 03:34:00+00:00,336.0,4.36,338.0,4.73,12.17,47.59359,-54.27349
2023-03-30 03:44:00+00:00,336.0,4.5,334.0,4.96,12.17,47.59359,-54.27349
2023-03-30 03:54:00+00:00,327.0,4.33,329.0,4.84,12.17,47.59359,-54.27349
2023-03-30 04:04:00+00:00,328.0,4.76,328.0,5.35,12.17,47.59359,-54.27349
2023-03-30 04:14:01+00:00,335.0,4.26,338.0,4.79,12.17,47.59359,-54.27349
2023-03-30 04:24:01+00:00,335.0,5.85,340.0,6.35,12.17,47.59359,-54.27349
2023-03-30 04:34:01+00:00,334.0,4.88,336.0,5.72,12.17,47.59359,-54.27349
2023-03-30 04:44:01+00:00,334.0,4.89,334.0,5.57,12.17,47.59359,-54.27349
2023-03-30 04:54:01+00:00,337.0,5.6,340.0,6.03,12.17,47.59359,-54.27349
2023-03-30 05:04:01+00:00,325.0,3.92,327.0,4.57,12.17,47.59359,-54.27349
2023-03-30 05:14:00+00:00,337.0,4.36,336.0,4.65,12.17,47.59359,-54.27349
2023-03-30 05:24:00+00:00,353.0,4.33,348.0,4.72,12.17,47.59359,-54.27349
2023-03-30 05:34:00+00:00,348.0,4.15,354.0,4.74,12.17,47.59359,-54.27349
2023-03-30 05:44:00+00:00,328.0,4.04,330.0,4.91,12.17,47.59359,-54.27349
2023-03-30 05:54:00+00:00,348.0,4.17,345.0,5.03,12.17,47.59359,-54.27349
2023-03-30 06:04:00+00:00,327.0,4.78,328.0,5.06,12.17,47.59359,-54.27349
2023-03-30 06:14:00+00:00,327.0,4.74,326.0,5.09,12.09,47.59359,-54.27349
2023-03-30 06:24:00+00:00,321.0,4.78,322.0,5.22,12.09,47.59359,-54.27349
2023-03-30 06:34:00+00:00,327.0,4.44,326.0,4.82,12.09,47.59359,-54.27349
2023-03-30 06:44:00+00:00,328.0,4.29,327.0,4.66,12.09,47.59359,-54.27349
2023-03-30 06:54:00+00:00,326.0,4.34,326.0,4.77,12.09,47.59359,-54.27349
2023-03-30 07:04:00+00:00,329.0,4.93,328.0,5.23,12.09,47.59359,-54.27349
2023-03-30 07:14:00+00:00,324.0,5.12,325.0,5.53,12.09,47.59359,-54.27349
2023-03-30 07:24:00+00:00,330.0,4.46,328.0,5.02,12.09,47.59359,-54.27349
2023-03-30 07:34:00+00:00,322.0,5.63,317.0,6.15,12.09,47.59359,-54.27349
2023-03-30 07:44:00+00:00,325.0,5.28,325.0,5.79,12.09,47.59359,-54.27349
2023-03-30 07:54:00+00:00,326.0,4.48,325.0,4.88,12.09,47.59359,-54.27349
2023-03-30 08:04:00+00:00,357.0,2.88,359.0,3.34,12.09,47.59359,-54.27349
2023-03-30 08:14:00+00:00,350.0,1.68,345.0,2.02,12.09,47.59359,-54.27349
2023-03-30 08:24:00+00:00,358.0,1.38,354.0,1.64,12.09,47.59359,-54.27349
2023-03-30 08:34:00+00:00,21.0,1.19,13.0,1.55,12.09,47.59359,-54.27349
2023-03-30 08:44:00+00:00,342.0,1.01,342.0,1.28,12.09,47.59359,-54.27349
2023-03-30 08:54:00+00:00,316.0,2.63,315.0,3.02,12.09,47.59359,-54.27349
2023-03-30 09:04:00+00:00,324.0,2.84,324.0,3.36,12.09,47.59359,-54.27349
2023-03-30 09:14:00+00:00,311.0,1.99,313.0,2.19,12.09,47.59359,-54.27349
2023-03-30 09:24:00+00:00,216.0,0.15,271.0,0.42,12.09,47.59359,-54.27349
2023-03-30 09:34:00+00:00,28.0,1.07,31.0,1.37,12.09,47.59359,-54.27349
2023-03-30 09:44:00+00:00,347.0,2.33,345.0,2.78,12.09,47.59359,-54.27349
2023-03-30 09:54:00+00:00,359.0,2.23,356.0,2.65,12.09,47.59359,-54.27349
2023-03-30 10:04:00+00:00,336.0,1.88,329.0,2.23,12.09,47.59359,-54.27349
2023-03-30 10:14:00+00:00,6.0,1.25,8.0,1.46,12.65,47.59359,-54.27349
2023-03-30 10:24:00+00:00,62.0,1.14,56.0,1.44,12.65,47.59359,-54.27349
2023-03-30 10:34:00+00:00,66.0,1.2,61.0,1.5,12.65,47.59359,-54.27349
2023-03-30 10:44:00+00:00,87.0,1.51,82.0,1.85,12.65,47.59359,-54.27349
2023-03-30 10:54:00+00:00,77.0,1.51,65.0,1.96,12.65,47.59359,-54.27349
2023-03-30 11:04:00+00:00,69.0,1.63,81.0,2.05,12.65,47.59359,-54.27349
2023-03-30 11:14:00+00:00,65.0,1.18,63.0,1.52,13.84,47.59359,-54.27349
2023-03-30 11:24:00+00:00,87.0,0.72,91.0,1.3,13.84,47.59359,-54.27349
2023-03-30 11:34:00+00:00,124.0,0.75,135.0,1.3,13.84,47.59359,-54.27349
2023-03-30 11:44:00+00:00,58.0,0.49,47.0,0.66,13.84,47.59359,-54.27349
2023-03-30 11:54:00+00:00,76.0,0.64,76.0,0.83,13.84,47.59359,-54.27349
2023-03-30 12:04:00+00:00,164.0,0.91,168.0,1.27,13.84,47.59359,-54.27349
2023-03-30 12:14:00+00:00,45.0,0.41,30.0,0.57,14.4,47.59359,-54.27349
2023-03-30 12:24:00+00:00,174.0,1.1,180.0,1.38,14.4,47.59359,-54.27349
2023-03-30 12:34:00+00:00,186.0,1.34,181.0,1.55,14.4,47.59359,-54.27349
2023-03-30 12:44:00+00:00,178.0,2.0,178.0,2.28,14.4,47.59359,-54.27349
2023-03-30 12:54:00+00:00,181.0,2.08,185.0,2.19,14.4,47.59359,-54.27349
2023-03-30 13:04:00+00:00,192.0,2.22,192.0,2.4,14.4,47.59359,-54.27349
2023-03-30 13:14:00+00:00,182.0,1.8,186.0,1.89,14.4,47.59359,-54.27349
2023-03-30 13:24:00+00:00,161.0,2.15,159.0,2.42,14.4,47.59359,-54.27349
2023-03-30 13:34:00+00:00,172.0,2.24,175.0,2.44,14.4,47.59359,-54.27349
2023-03-30 13:44:00+00:00,187.0,1.94,184.0,2.17,14.4,47.59359,-54.27349
2023-03-30 13:54:00+00:00,196.0,2.05,201.0,2.22,14.4,47.59359,-54.27349
2023-03-30 14:04:00+00:00,208.0,2.51,208.0,2.75,14.4,47.59359,-54.27349
2023-03-30 14:14:00+00:00,208.0,2.25,212.0,2.4,13.92,47.59359,-54.27349
2023-03-30 14:24:00+00:00,200.0,2.99,205.0,3.34,13.92,47.59359,-54.27349
2023-03-30 14:34:00+00:00,207.0,3.39,210.0,3.66,13.92,47.59359,-54.27349
2023-03-30 14:44:00+00:00,203.0,3.64,204.0,3.93,13.92,47.59359,-54.27349
2023-03-30 14:54:00+00:00,207.0,4.15,204.0,4.58,13.92,47.59359,-54.27349
2023-03-30 15:04:00+00:00,209.0,4.5,210.0,4.93,13.92,47.59359,-54.27349
2023-03-30 15:14:00+00:00,211.0,4.2,219.0,4.73,13.53,47.59359,-54.27349
2023-03-30 15:24:00+00:00,219.0,4.87,219.0,5.6,13.53,47.59359,-54.27349
2023-03-30 15:34:00+00:00,214.0,5.3,214.0,5.74,13.53,47.59359,-54.27349
2023-03-30 15:44:00+00:00,217.0,4.97,217.0,5.39,13.53,47.59359,-54.27349
2023-03-30 15:54:00+00:00,212.0,4.62,216.0,5.44,13.53,47.59359,-54.27349
2023-03-30 16:04:00+00:00,215.0,4.96,217.0,5.42,13.53,47.59359,-54.27349
2023-03-30 16:14:00+00:00,213.0,4.51,217.0,5.04,13.68,47.59359,-54.27349
2023-03-30 16:24:00+00:00,204.0,4.47,212.0,5.15,13.68,47.59359,-54.27349
2023-03-30 16:34:00+00:00,211.0,5.56,213.0,5.96,13.68,47.59359,-54.27349
2023-03-30 16:44:00+00:00,209.0,5.37,211.0,5.9,13.68,47.59359,-54.27349
2023-03-30 16:54:00+00:00,212.0,5.37,216.0,5.82,13.68,47.59359,-54.27349
2023-03-30 17:04:00+00:00,207.0,6.18,207.0,6.5,13.68,47.59359,-54.27349
2023-03-30 17:14:00+00:00,205.0,6.47,208.0,7.12,14.16,47.59359,-54.27349
2023-03-30 17:24:00+00:00,209.0,6.47,212.0,7.26,14.16,47.59359,-54.27349
2023-03-30 17:34:00+00:00,210.0,6.63,211.0,7.39,14.16,47.59359,-54.27349
2023-03-30 17:44:00+00:00,212.0,6.5,208.0,7.32,14.16,47.59359,-54.27349
2023-03-30 17:54:00+00:00,212.0,6.84,214.0,7.59,14.16,47.59359,-54.27349
2023-03-30 18:04:00+00:00,211.0,7.46,214.0,8.15,14.16,47.59359,-54.27349
2023-03-30 18:14:01+00:00,211.0,6.83,213.0,8.1,14.08,47.59359,-54.27349
2023-03-30 18:24:01+00:00,211.0,7.44,210.0,8.38,14.08,47.59359,-54.27349
2023-03-30 18:34:01+00:00,213.0,7.82,211.0,9.04,14.08,47.59359,-54.27349
2023-03-30 18:44:01+00:00,210.0,7.62,209.0,8.43,14.08,47.59359,-54.27349
2023-03-30 18:54:01+00:00,209.0,7.51,211.0,8.11,14.08,47.59359,-54.27349
2023-03-30 19:04:01+00:00,211.0,7.35,211.0,7.9,14.08,47.59359,-54.27349
2023-03-30 19:14:00+00:00,208.0,7.75,208.0,8.58,13.92,47.59359,-54.27349
2023-03-30 19:24:00+00:00,210.0,7.85,209.0,8.68,13.92,47.59359,-54.27349
2023-03-30 19:34:00+00:00,199.0,6.49,209.0,7.81,13.92,47.59359,-54.27349
2023-03-30 19:44:00+00:00,208.0,7.1,206.0,8.19,13.92,47.59359,-54.27349
2023-03-30 19:54:00+00:00,201.0,6.76,209.0,7.69,13.92,47.59359,-54.27349
2023-03-30 20:04:00+00:00,207.0,6.97,210.0,8.0,13.92,47.59359,-54.27349
2023-03-30 20:14:00+00:00,211.0,7.17,213.0,7.89,13.76,47.59359,-54.27349
2023-03-30 20:24:00+00:00,214.0,7.19,213.0,8.0,13.76,47.59359,-54.27349
2023-03-30 20:34:00+00:00,211.0,6.93,210.0,7.7,13.76,47.59359,-54.27349
2023-03-30 20:44:00+00:00,202.0,5.82,200.0,7.51,13.76,47.59359,-54.27349
2023-03-30 20:54:00+00:00,204.0,6.6,206.0,7.81,13.76,47.59359,-54.27349
2023-03-30 21:04:00+00:00,212.0,6.66,212.0,7.66,13.76,47.59359,-54.27349
2023-03-30 21:14:00+00:00,212.0,7.27,210.0,7.99,13.37,47.59359,-54.27349
2023-03-30 21:24:00+00:00,213.0,6.63,213.0,7.35,13.37,47.59359,-54.27349
2023-03-30 21:34:00+00:00,197.0,5.48,214.0,6.49,13.37,47.59359,-54.27349
2023-03-30 21:44:00+00:00,213.0,6.12,213.0,6.69,13.37,47.59359,-54.27349
2023-03-30 21:54:00+00:00,215.0,6.71,217.0,7.38,13.37,47.59359,-54.27349
2023-03-30 22:04:00+00:00,214.0,5.93,213.0,6.82,13.37,47.59359,-54.27349
2023-03-30 22:14:00+00:00,216.0,5.8,215.0,6.67,12.89,47.59359,-54.27349
2023-03-30 22:24:00+00:00,214.0,5.12,217.0,5.88,12.89,47.59359,-54.27349
2023-03-30 22:34:00+00:00,156.0,5.34,158.0,5.82,12.89,47.59359,-54.27349
2023-03-30 22:44:00+00:00,162.0,5.24,163.0,5.75,12.89,47.59359,-54.27349
2023-03-30 22:54:00+00:00,172.0,4.31,206.0,5.13,12.89,47.59359,-54.27349
2023-03-30 23:04:00+00:00,157.0,4.21,161.0,5.1,12.89,47.59359,-54.27349
2023-03-30 23:14:00+00:00,161.0,4.78,162.0,5.49,12.41,47.59359,-54.27349
2023-03-30 23:24:00+00:00,156.0,4.56,159.0,5.01,12.41,47.59359,-54.27349
2023-03-30 23:34:00+00:00,149.0,3.87,147.0,4.38,12.41,47.59359,-54.27349
2023-03-30 23:44:00+00:00,150.0,3.82,147.0,4.16,12.41,47.59359,-54.27349
2023-03-30 23:54:00+00:00,144.0,3.61,141.0,4.01,12.41,47.59359,-54.27349
